Retour au catalogue

STARLINK-36271

ActifCommunicationsVLEO
NORAD 68703·PAYLOAD·🇺🇸 United States

Lancé Apr 14, 2026 depuis Cape Canaveral Space Force Station

Loading…

Prochains Passages (prochaines 24 heures)

TLE

FraisSource: CelesTrak SupGP

Époque: Sep 14, 2026, 23:18 UTC

1 68703C 26081E   26257.97131944  .00012668  00000+0  37438-3 0  2578
2 68703  53.1576 231.8149 0001318  89.9289   1.2370 15.34374811    10

Suivez STARLINK-36271 en temps réel avec AllMySat

Download on the App Store